SSEC Globe Logo

Space Science and Engineering Center

Surface Aviation Observations

KAIG 060215Z AUTO 20007KT 10SM SCT055 17/15 A2998 RMK AO2
     T01680150=
KAIG 060215Z AUTO 20007KT 10SM SCT055 17/15 A2998 RMK AO2
     T01680150=
KAIG 060155Z AUTO 20011KT 10SM SCT042 BKN055 17/15 A2997 RMK
     AO2 T01700152=
KAIG 060155Z AUTO 20011KT 10SM SCT042 BKN055 17/15 A2997 RMK
     AO2 T01700152=
KC29 060215Z AUTO 14003KT 10SM OVC055 21/19 A3000 RMK AO1
     T02100187=
KC29 060215Z AUTO 14003KT 10SM OVC055 21/19 A3000 RMK AO1
     T02100187=
KC29 060155Z AUTO 14005KT 10SM OVC055 21/19 A3000 RMK AO1
     T02100186=
KC29 060155Z AUTO 14005KT 10SM OVC055 21/19 A3000 RMK AO1
     T02100186=
KBCK 060215Z AUTO 16003KT 10SM SCT100 18/17 A2993 RMK AO2
     T01830165=
KBCK 060215Z AUTO 16003KT 10SM SCT100 18/17 A2993 RMK AO2
     T01830165=
KBCK 060155Z AUTO 16003KT 10SM CLR 19/17 A2993 RMK AO2
     T01850165=
KBCK 060155Z AUTO 16003KT 10SM CLR 19/17 A2993 RMK AO2
     T01850165=
KUBE 060215Z AUTO 07005G20KT 330V100 10SM VCTS SCT011 BKN017
     OVC025 20/16 A2991 RMK AO2 LTG DSNT ALQS=
KUBE 060215Z AUTO 07005G20KT 330V100 10SM VCTS SCT011 BKN017
     OVC025 20/16 A2991 RMK AO2 LTG DSNT ALQS=
KUBE 060155Z AUTO 35008KT 10SM VCTS OVC011 19/16 A2990 RMK
     AO2 LTG DSNT SW THRU NE=
KUBE 060155Z AUTO 35008KT 10SM VCTS OVC011 19/16 A2990 RMK
     AO2 LTG DSNT SW THRU NE=
KPVB 060215Z AUTO 17006KT 7SM BKN100 OVC110 21/19 A2999 RMK
     AO1 T02110185=
KPVB 060215Z AUTO 17006KT 7SM BKN100 OVC110 21/19 A2999 RMK
     AO1 T02110185=
KPVB 060155Z AUTO 16007KT 10SM SCT041 OVC100 21/19 A2999 RMK
     AO1 T02100187=
KPVB 060155Z AUTO 16007KT 10SM SCT041 OVC100 21/19 A2999 RMK
     AO1 T02100187=
KEZS 060215Z AUTO 22003KT 10SM OVC055 22/16 A2996 RMK AO2
     T02180157=
KEZS 060215Z AUTO 22003KT 10SM OVC055 22/16 A2996 RMK AO2
     T02180157=
KEZS 060155Z AUTO 22003KT 10SM BKN065 OVC090 22/16 A2996 RMK
     AO2 T02200155=
KEZS 060155Z AUTO 22003KT 10SM BKN065 OVC090 22/16 A2996 RMK
     AO2 T02200155=
KARV 060215Z AUTO 22008G15KT 10SM OVC011 18/11 A2994 RMK AO2
     T01800106=
KARV 060215Z AUTO 22008G15KT 10SM OVC011 18/11 A2994 RMK AO2
     T01800106=
KARV 060155Z AUTO 21010G16KT 10SM OVC011 18/11 A2993 RMK AO2
     T01800106=
KARV 060155Z AUTO 21010G16KT 10SM OVC011 18/11 A2993 RMK AO2
     T01800106=
KASX 060153Z AUTO 19006KT 10SM OVC018 21/17 A2985 RMK AO2
     SLP106 T02060172=
KASX 060153Z AUTO 19006KT 10SM OVC018 21/17 A2985 RMK AO2
     SLP106 T02060172=
KATW 060145Z 22011KT 10SM SCT070 OVC110 21/14 A2997=
KATW 060145Z 22011KT 10SM SCT070 OVC110 21/14 A2997=
KAUW 060154Z AUTO 17009KT 10SM OVC041 20/16 A2994 RMK AO2
     SLP139 T02000156=
KAUW 060154Z AUTO 17009KT 10SM OVC041 20/16 A2994 RMK AO2
     SLP139 T02000156=
KBUU 060215Z AUTO 00000KT 10SM 22/17 A3002 RMK AO2 T02220174
     PWINO=
KBUU 060215Z AUTO 00000KT 10SM 22/17 A3002 RMK AO2 T02220174
     PWINO=
KBUU 060155Z AUTO 00000KT 10SM 22/17 A3002 RMK AO2 T02240173
     PWINO=
KBUU 060155Z AUTO 00000KT 10SM 22/17 A3002 RMK AO2 T02240173
     PWINO=
KCLI 060215Z AUTO 22007KT 10SM OVC050 21/14 A2997 RMK AO2
     T02110143=
KCLI 060215Z AUTO 22007KT 10SM OVC050 21/14 A2997 RMK AO2
     T02110143=
KCLI 060155Z AUTO 21006KT 10SM BKN050 OVC060 21/15 A2997 RMK
     AO2 T02080150=
KCLI 060155Z AUTO 21006KT 10SM BKN050 OVC060 21/15 A2997 RMK
     AO2 T02080150=
KCMY 060215Z AUTO 19005KT 10SM 19/15 A2995 RMK AO2
     T01870154=
KCMY 060215Z AUTO 19005KT 10SM 19/15 A2995 RMK AO2
     T01870154=
KCMY 060155Z AUTO 18004KT 10SM 19/15 A2995 RMK AO2
     T01860153=
KCMY 060155Z AUTO 18004KT 10SM 19/15 A2995 RMK AO2
     T01860153=
KCWA 060147Z 18009KT 10SM SCT036 SCT055 17/15 A2997=
KCWA 060147Z 18009KT 10SM SCT036 SCT055 17/15 A2997=
KDLL 060215Z AUTO 24003KT 10SM OVC080 18/16 A2997 RMK AO2
     T01760156=
KDLL 060215Z AUTO 24003KT 10SM OVC080 18/16 A2997 RMK AO2
     T01760156=
KDLL 060155Z AUTO 00000KT 10SM SCT050 BKN080 18/15 A2997 RMK
     AO2 T01770152=
KDLL 060155Z AUTO 00000KT 10SM SCT050 BKN080 18/15 A2997 RMK
     AO2 T01770152=
KEAU 060156Z AUTO 16008KT 10SM CLR 20/17 A2989 RMK AO2
     SLP118 T02000172=
KEAU 060156Z AUTO 16008KT 10SM CLR 20/17 A2989 RMK AO2
     SLP118 T02000172=
KEFT 060215Z AUTO 18009KT 10SM OVC060 22/15 A2999 RMK AO2
     T02200150=
KEFT 060215Z AUTO 18009KT 10SM OVC060 22/15 A2999 RMK AO2
     T02200150=
KEFT 060155Z AUTO 18008KT 10SM OVC060 22/15 A2999 RMK AO2
     T02230154=
KEFT 060155Z AUTO 18008KT 10SM OVC060 22/15 A2999 RMK AO2
     T02230154=
KEGV 060215Z AUTO 22006KT 10SM OVC019 18/16 A2994 RMK AO2
     T01750157=
KEGV 060215Z AUTO 22006KT 10SM OVC019 18/16 A2994 RMK AO2
     T01750157=
KEGV 060155Z AUTO 21006KT 10SM BKN016 OVC022 18/16 A2994 RMK
     AO2 T01750160=
KEGV 060155Z AUTO 21006KT 10SM BKN016 OVC022 18/16 A2994 RMK
     AO2 T01750160=
KENW 060153Z 22006KT 9SM OVC110 26/15 A3002 RMK AO2 SLP160
     T02610150=
KENW 060153Z 22006KT 9SM OVC110 26/15 A3002 RMK AO2 SLP160
     T02610150=
KETB 060215Z AUTO 24003KT 10SM SCT050 OVC080 21/17 A3001 RMK
     AO2=
KETB 060215Z AUTO 24003KT 10SM SCT050 OVC080 21/17 A3001 RMK
     AO2=
KETB 060155Z AUTO 00000KT 10SM -RA OVC080 21/17 A3001 RMK
     AO2=
KETB 060155Z AUTO 00000KT 10SM -RA OVC080 21/17 A3001 RMK
     AO2=
KFLD 060153Z AUTO 21005KT 10SM FEW046 BKN080 OVC090 24/15
     A3000 RMK AO2 RAB33E42 SLP153 P0000 T02390150=
KFLD 060153Z AUTO 21005KT 10SM FEW046 BKN080 OVC090 24/15
     A3000 RMK AO2 RAB33E42 SLP153 P0000 T02390150=
KGRB 060153Z 21005KT 10SM FEW080 SCT100 22/15 A2996 RMK AO2
     SLP143 T02220150=
KGRB 060153Z 21005KT 10SM FEW080 SCT100 22/15 A2996 RMK AO2
     SLP143 T02220150=
KHYR 060153Z AUTO 18006KT 10SM OVC013 21/17 A2988 RMK AO2
     SLP114 T02060172=
KHYR 060153Z AUTO 18006KT 10SM OVC013 21/17 A2988 RMK AO2
     SLP114 T02060172=
KISW 060154Z AUTO 18007KT 10SM BKN034 BKN050 19/15 A2997 RMK
     AO2 SLP143 T01890150=
KISW 060154Z AUTO 18007KT 10SM BKN034 BKN050 19/15 A2997 RMK
     AO2 SLP143 T01890150=
KJVL 060145Z 19006KT 10SM OVC065 24/16 A3001=
KJVL 060145Z 19006KT 10SM OVC065 24/16 A3001=
KLNL 060215Z AUTO 20006KT 10SM OVC015 18/15 A2995 RMK AO2
     T01810152=
KLNL 060215Z AUTO 20006KT 10SM OVC015 18/15 A2995 RMK AO2
     T01810152=
KLNL 060155Z AUTO 21007G15KT 10SM OVC015 18/15 A2994 RMK AO2
     T01810151=
KLNL 060155Z AUTO 21007G15KT 10SM OVC015 18/15 A2994 RMK AO2
     T01810151=
KLNR 060156Z AUTO 10005KT 10SM SCT065 18/16 A2997 RMK AO2
     SLP139 T01830161=
KLNR 060156Z AUTO 10005KT 10SM SCT065 18/16 A2997 RMK AO2
     SLP139 T01830161=
KLSE 060153Z 16007KT 10SM CLR 22/17 A2992 RMK AO2 SLP121
     T02170172=
KLSE 060153Z 16007KT 10SM CLR 22/17 A2992 RMK AO2 SLP121
     T02170172=
KLUM 060215Z AUTO 11004KT 10SM 18/17 A2989 RMK AO2 LTG DSNT
     W AND NW T01760165=
KLUM 060215Z AUTO 11004KT 10SM 18/17 A2989 RMK AO2 LTG DSNT
     W AND NW T01760165=
KLUM 060155Z AUTO 12006KT 10SM 18/17 A2988 RMK AO2 LTG DSNT
     SW THRU N T01770165=
KLUM 060155Z AUTO 12006KT 10SM 18/17 A2988 RMK AO2 LTG DSNT
     SW THRU N T01770165=
KMDZ 060215Z AUTO 19007KT 10SM OVC023 17/16 A2995 RMK AO2
     T01700160 PWINO=
KMDZ 060215Z AUTO 19007KT 10SM OVC023 17/16 A2995 RMK AO2
     T01700160 PWINO=
KMDZ 060155Z AUTO 18008KT 10SM OVC025 17/16 A2995 RMK AO2
     LTG DSNT NW T01680160 PWINO=
KMDZ 060155Z AUTO 18008KT 10SM OVC025 17/16 A2995 RMK AO2
     LTG DSNT NW T01680160 PWINO=
KMFI 060154Z AUTO 19007KT 10SM FEW036 BKN060 18/15 A2995 RMK
     AO2 SLP140 T01780150=
KMFI 060154Z AUTO 19007KT 10SM FEW036 BKN060 18/15 A2995 RMK
     AO2 SLP140 T01780150=
KMKE 060152Z 22009KT 10SM FEW090 OVC110 27/14 A3001 RMK AO2
     SLP155 T02670144=
KMKE 060152Z 22009KT 10SM FEW090 OVC110 27/14 A3001 RMK AO2
     SLP155 T02670144=
KMRJ 060215Z AUTO 16005KT 10SM BKN120 19/15 A2999 RMK AO2=
KMRJ 060215Z AUTO 16005KT 10SM BKN120 19/15 A2999 RMK AO2=
KMRJ 060155Z AUTO 16006KT 10SM SCT055 19/15 A2999 RMK AO2=
KMRJ 060155Z AUTO 16006KT 10SM SCT055 19/15 A2999 RMK AO2=
KMSN 060153Z 14007KT 10SM OVC060 22/18 A2998 RMK AO2 RAE0055
     SLP147 P0000 T02170178=
KMSN 060153Z 14007KT 10SM OVC060 22/18 A2998 RMK AO2 RAE0055
     SLP147 P0000 T02170178=
KMTW 060156Z AUTO 25006KT 10SM BKN060 BKN090 23/18 A2999 RMK
     AO2 SLP153 T02280178=
KMTW 060156Z AUTO 25006KT 10SM BKN060 BKN090 23/18 A2999 RMK
     AO2 SLP153 T02280178=
KMWC 060215Z AUTO 24004KT 10SM SCT050 OVC100 23/13 A3002 RMK
     AO2=
KMWC 060215Z AUTO 24004KT 10SM SCT050 OVC100 23/13 A3002 RMK
     AO2=
KMWC 060155Z AUTO 25003KT 10SM BKN100 OVC120 24/13 A3001 RMK
     AO2=
KMWC 060155Z AUTO 25003KT 10SM BKN100 OVC120 24/13 A3001 RMK
     AO2=
KMWC 060145Z 23005KT 10SM BKN100 OVC120 24/13 A3001=
KMWC 060145Z 23005KT 10SM BKN100 OVC120 24/13 A3001=
KOEO 060215Z AUTO 03015KT 10SM SCT011 SCT024 BKN039 22/20
     A2991 RMK AO2 T02190203=
KOEO 060215Z AUTO 03015KT 10SM SCT011 SCT024 BKN039 22/20
     A2991 RMK AO2 T02190203=
KOEO 060155Z AUTO 15007KT 10SM SCT009 SCT022 SCT031 22/21
     A2987 RMK AO2 P0019 T02210211=
KOEO 060155Z AUTO 15007KT 10SM SCT009 SCT022 SCT031 22/21
     A2987 RMK AO2 P0019 T02210211=
KOSH 060153Z 21007KT 10SM OVC075 22/16 A2998 RMK AO2 SLP141
     T02170156=
KOSH 060153Z 21007KT 10SM OVC075 22/16 A2998 RMK AO2 SLP141
     T02170156=
KOVS 060153Z AUTO 00000KT 9SM BKN037 BKN120 20/18 A2997 RMK
     AO2 RAB05E48 SLP145 P0000 T02000183=
KOVS 060153Z AUTO 00000KT 9SM BKN037 BKN120 20/18 A2997 RMK
     AO2 RAB05E48 SLP145 P0000 T02000183=
KPBH 060215Z AUTO 19006KT 10SM OVC009 17/17 A2992 RMK AO2
     T01730173=
KPBH 060215Z AUTO 19006KT 10SM OVC009 17/17 A2992 RMK AO2
     T01730173=
KPBH 060155Z AUTO 20005KT 10SM OVC009 18/18 A2992 RMK AO2
     LTG DSNT W T01760175=
KPBH 060155Z AUTO 20005KT 10SM OVC009 18/18 A2992 RMK AO2
     LTG DSNT W T01760175=
KPCZ 060215Z AUTO 19007KT 10SM OVC050 21/15 A2998 RMK AO2
     T02110148=
KPCZ 060215Z AUTO 19007KT 10SM OVC050 21/15 A2998 RMK AO2
     T02110148=
KPCZ 060155Z AUTO 19009KT 10SM OVC050 21/15 A2998 RMK AO2
     T02120147=
KPCZ 060155Z AUTO 19009KT 10SM OVC050 21/15 A2998 RMK AO2
     T02120147=
KPDC 060215Z AUTO 09003KT 10SM BKN031 OVC036 21/17 A2996 RMK
     AO2 T02060166=
KPDC 060215Z AUTO 09003KT 10SM BKN031 OVC036 21/17 A2996 RMK
     AO2 T02060166=
KPDC 060155Z AUTO 09003KT 10SM OVC031 21/17 A2995 RMK AO2
     T02060166=
KPDC 060155Z AUTO 09003KT 10SM OVC031 21/17 A2995 RMK AO2
     T02060166=
KRAC 060153Z AUTO 21004KT 10SM OVC120 24/17 A3003 RMK AO2
     SLP163 T02440172=
KRAC 060153Z AUTO 21004KT 10SM OVC120 24/17 A3003 RMK AO2
     SLP163 T02440172=
KRCX 060215Z AUTO 16006KT 10SM 19/19 A2992 RMK AO2
     T01900190=
KRCX 060215Z AUTO 16006KT 10SM 19/19 A2992 RMK AO2
     T01900190=
KRCX 060155Z AUTO 16007KT 10SM 19/19 A2991 RMK AO2 LTG DSNT
     W T01900190=
KRCX 060155Z AUTO 16007KT 10SM 19/19 A2991 RMK AO2 LTG DSNT
     W T01900190=
KRHI 060153Z AUTO 22009KT 10SM OVC024 17/15 A2995 RMK AO2
     SLP139 T01720150=
KRHI 060153Z AUTO 22009KT 10SM OVC024 17/15 A2995 RMK AO2
     SLP139 T01720150=
KRNH 060215Z AUTO 23008G32KT 2 1/2SM +RA SCT013 BKN029
     OVC090 21/18 A2986 RMK AO2 VIS 1 1/2V5 T02110179=
KRNH 060215Z AUTO 23008G32KT 2 1/2SM +RA SCT013 BKN029
     OVC090 21/18 A2986 RMK AO2 VIS 1 1/2V5 T02110179=
KRNH 060155Z AUTO 00000KT 10SM SCT060 SCT070 BKN090 22/18
     A2987 RMK AO2 T02200181=
KRNH 060155Z AUTO 00000KT 10SM SCT060 SCT070 BKN090 22/18
     A2987 RMK AO2 T02200181=
KRPD 060215Z AUTO 14008KT 10SM BKN013 OVC019 20/18 A2989 RMK
     AO2 LTG DSNT N AND W T01950181=
KRPD 060215Z AUTO 14008KT 10SM BKN013 OVC019 20/18 A2989 RMK
     AO2 LTG DSNT N AND W T01950181=
KRPD 060155Z AUTO 13007KT 10SM TS OVC013 20/18 A2988 RMK AO2
     LTG DSNT SW THRU NW T01960181=
KRPD 060155Z AUTO 13007KT 10SM TS OVC013 20/18 A2988 RMK AO2
     LTG DSNT SW THRU NW T01960181=
KRRL 060215Z AUTO 19005KT 10SM BKN028 OVC034 18/17 A2995 RMK
     AO2 T01750165 TSNO=
KRRL 060215Z AUTO 19005KT 10SM BKN028 OVC034 18/17 A2995 RMK
     AO2 T01750165 TSNO=
KRRL 060155Z AUTO 18005KT 10SM OVC034 18/17 A2994 RMK AO2
     T01760165 TSNO=
KRRL 060155Z AUTO 18005KT 10SM OVC034 18/17 A2994 RMK AO2
     T01760165 TSNO=
KRYV 060215Z AUTO 12003KT 10SM OVC070 21/19 A3000 RMK AO2
     T02080191=
KRYV 060215Z AUTO 12003KT 10SM OVC070 21/19 A3000 RMK AO2
     T02080191=
KRYV 060155Z AUTO 00000KT 10SM -DZ SCT048 SCT060 OVC070
     22/19 A3001 RMK AO2 T02160186=
KRYV 060155Z AUTO 00000KT 10SM -DZ SCT048 SCT060 OVC070
     22/19 A3001 RMK AO2 T02160186=
KRZN 060215Z AUTO 19003KT 10SM SCT060 SCT080 18/17 A2985 RMK
     AO2 T01810171=
KRZN 060215Z AUTO 19003KT 10SM SCT060 SCT080 18/17 A2985 RMK
     AO2 T01810171=
KRZN 060155Z AUTO 00000KT 10SM -RA SCT040 BKN050 OVC070
     18/17 A2985 RMK AO2 P0057 T01800170=
KRZN 060155Z AUTO 00000KT 10SM -RA SCT040 BKN050 OVC070
     18/17 A2985 RMK AO2 P0057 T01800170=
KSBM 060153Z AUTO 24003KT 10SM BKN080 OVC110 23/18 A3000 RMK
     AO2 RAB0056E10 SLP153 P0000 T02280178=
KSBM 060153Z AUTO 24003KT 10SM BKN080 OVC110 23/18 A3000 RMK
     AO2 RAB0056E10 SLP153 P0000 T02280178=
KSTE 060215Z AUTO 19007KT 10SM BKN033 OVC050 18/15 A2998 RMK
     AO2 T01750146=
KSTE 060215Z AUTO 19007KT 10SM BKN033 OVC050 18/15 A2998 RMK
     AO2 T01750146=
KSTE 060155Z AUTO 19008KT 10SM OVC050 18/15 A2998 RMK AO2
     T01770146=
KSTE 060155Z AUTO 19008KT 10SM OVC050 18/15 A2998 RMK AO2
     T01770146=
KSUE 060156Z AUTO 20006KT 10SM CLR 22/17 A2997 RMK AO2
     SLP144 T02170172 PNO $=
KSUE 060156Z AUTO 20006KT 10SM CLR 22/17 A2997 RMK AO2
     SLP144 T02170172 PNO $=
KSUW 060215Z AUTO 20003KT 10SM OVC060 19/19 A2982 RMK AO2
     T01930185=
KSUW 060215Z AUTO 20003KT 10SM OVC060 19/19 A2982 RMK AO2
     T01930185=
KSUW 060155Z AUTO 26003KT 10SM SCT060 BKN070 19/18 A2982 RMK
     AO2 T01940182=
KSUW 060155Z AUTO 26003KT 10SM SCT060 BKN070 19/18 A2982 RMK
     AO2 T01940182=
KTKV 060215Z AUTO 00000KT 10SM OVC021 16/15 A2996 RMK AO2
     T01630150 PWINO=
KTKV 060215Z AUTO 00000KT 10SM OVC021 16/15 A2996 RMK AO2
     T01630150 PWINO=
KTKV 060155Z AUTO 00000KT 10SM OVC021 16/15 A2995 RMK AO2
     T01630151 PWINO=
KTKV 060155Z AUTO 00000KT 10SM OVC021 16/15 A2995 RMK AO2
     T01630151 PWINO=
KUES 060215Z AUTO 23006KT 10SM SCT047 BKN055 OVC070 22/16
     A3003 RMK AO2=
KUES 060215Z AUTO 23006KT 10SM SCT047 BKN055 OVC070 22/16
     A3003 RMK AO2=
KUES 060145Z 00000KT 10SM BKN049 22/16 A3002=
KUES 060145Z 00000KT 10SM BKN049 22/16 A3002=
KUNU 060215Z AUTO 00000KT 10SM OVC060 20/18 A3002 RMK AO2
     T02000181=
KUNU 060215Z AUTO 00000KT 10SM OVC060 20/18 A3002 RMK AO2
     T02000181=
KUNU 060155Z AUTO 21004KT 10SM OVC070 20/18 A3002 RMK AO2
     T02010180=
KUNU 060155Z AUTO 21004KT 10SM OVC070 20/18 A3002 RMK AO2
     T02010180=
KVOK 060156Z AUTO 14004KT 10SM FEW130 18/15 A2995 RMK AO2
     SLP142 T01820153=
KVOK 060156Z AUTO 14004KT 10SM FEW130 18/15 A2995 RMK AO2
     SLP142 T01820153=
METAR KVOK 060156Z AUTO 14004KT 10SM FEW130 18/15 A2995 RMK
     AO2 SLP142 T01820153=
METAR KVOK 060156Z AUTO 14004KT 10SM FEW130 18/15 A2995 RMK
     AO2 SLP142 T01820153=
KY51 060215Z AUTO 16007KT 10SM SCT002 BKN120 19/18 A2996 RMK
     AO1 T01850180=
KY51 060215Z AUTO 16007KT 10SM SCT002 BKN120 19/18 A2996 RMK
     AO1 T01850180=
KY51 060155Z AUTO 16007KT 10SM BKN120 18/18 A2996 RMK AO1
     T01840179=
KY51 060155Z AUTO 16007KT 10SM BKN120 18/18 A2996 RMK AO1
     T01840179=
KY23 060215Z AUTO 15005KT 10SM OVC015 19/18 A2990 RMK AO2
     T01930181=
KY23 060215Z AUTO 15005KT 10SM OVC015 19/18 A2990 RMK AO2
     T01930181=
KY23 060155Z AUTO 15007KT 10SM OVC015 20/18 A2988 RMK AO2
     T01950181=
KY23 060155Z AUTO 15007KT 10SM OVC015 20/18 A2988 RMK AO2
     T01950181=
K3D2 060215Z AUTO 21003KT 10SM SCT100 21/17 A2995 RMK AO2
     T02120166=
K3D2 060215Z AUTO 21003KT 10SM SCT100 21/17 A2995 RMK AO2
     T02120166=
K3D2 060155Z AUTO 20006KT 10SM CLR 22/17 A2995 RMK AO2
     T02150167=
K3D2 060155Z AUTO 20006KT 10SM CLR 22/17 A2995 RMK AO2
     T02150167=
K4R5 060215Z AUTO 19003KT 10SM -RA SCT023 BKN090 OVC110
     20/18 A2983 RMK AO2 T01970182=
K4R5 060215Z AUTO 19003KT 10SM -RA SCT023 BKN090 OVC110
     20/18 A2983 RMK AO2 T01970182=
K4R5 060155Z AUTO 19007KT 140V240 10SM -RA SCT021 OVC110
     21/18 A2983 RMK AO2 T02060179=
K4R5 060155Z AUTO 19007KT 140V240 10SM -RA SCT021 OVC110
     21/18 A2983 RMK AO2 T02060179=
KD25 060215Z AUTO 20007KT 7SM OVC009 17/17 A2993 RMK AO2
     T01720172=
KD25 060215Z AUTO 20007KT 7SM OVC009 17/17 A2993 RMK AO2
     T01720172=
KD25 060155Z AUTO 21012G15KT 7SM OVC009 17/17 A2993 RMK AO2
     T01740174=
KD25 060155Z AUTO 21012G15KT 7SM OVC009 17/17 A2993 RMK AO2
     T01740174=
K82C 060215Z AUTO 14003KT 10SM BKN037 17/16 A2996 RMK AO2
     T01740161=
K82C 060215Z AUTO 14003KT 10SM BKN037 17/16 A2996 RMK AO2
     T01740161=
K82C 060155Z AUTO 00000KT 10SM SCT037 BKN120 18/16 A2996 RMK
     AO2 T01800162=
K82C 060155Z AUTO 00000KT 10SM SCT037 BKN120 18/16 A2996 RMK
     AO2 T01800162=
KOCQ 060215Z AUTO 22005KT 10SM BKN075 OVC100 22/16 A2995 RMK
     AO1 T02200161=
KOCQ 060215Z AUTO 22005KT 10SM BKN075 OVC100 22/16 A2995 RMK
     AO1 T02200161=
KOCQ 060155Z AUTO 23006KT 10SM OVC090 23/16 A2995 RMK AO1
     T02250162=
KOCQ 060155Z AUTO 23006KT 10SM OVC090 23/16 A2995 RMK AO1
     T02250162=
KC35 060215Z AUTO 18003KT 10SM SCT055 18/17 A2997 RMK AO2
     T01820174 PWINO=
KC35 060215Z AUTO 18003KT 10SM SCT055 18/17 A2997 RMK AO2
     T01820174 PWINO=
KC35 060155Z AUTO 00000KT 10SM SCT080 18/18 A2997 RMK AO2
     T01790175 PWINO=
KC35 060155Z AUTO 00000KT 10SM SCT080 18/18 A2997 RMK AO2
     T01790175 PWINO=
KOLG 060215Z AUTO 00000KT 7SM SCT016 BKN065 18/17 A2985 RMK
     AO1=
KOLG 060215Z AUTO 00000KT 7SM SCT016 BKN065 18/17 A2985 RMK
     AO1=
KOLG 060155Z AUTO 13003KT 10SM OVC016 17/17 A2985 RMK AO1
     P0005=
KOLG 060155Z AUTO 13003KT 10SM OVC016 17/17 A2985 RMK AO1
     P0005=
K2P2 060215Z AUTO 20007KT 10SM SCT110 21/18 A2994 RMK AO2
     T02120180=
K2P2 060215Z AUTO 20007KT 10SM SCT110 21/18 A2994 RMK AO2
     T02120180=
K2P2 060155Z AUTO 20009G15KT 10SM SCT120 21/18 A2994 RMK AO2
     T02130180=
K2P2 060155Z AUTO 20009G15KT 10SM SCT120 21/18 A2994 RMK AO2
     T02130180=
KDBQ 060153Z 19009KT 10SM FEW055 OVC090 21/16 A2999 RMK AO2
     SLP148 T02110161=
KDBQ 060153Z 19009KT 10SM FEW055 OVC090 21/16 A2999 RMK AO2
     SLP148 T02110161=
KRST 060154Z 19007KT 10SM CLR 19/18 A2992 RMK AO2 SLP128
     T01940178=
KRST 060154Z 19007KT 10SM CLR 19/18 A2992 RMK AO2 SLP128
     T01940178=
KMSP 060206Z 20007KT 10SM FEW014 SCT055 BKN250 24/21 A2984
     RMK AO2 LTG DSNT N AND NE CB DSNT NE AND S T02440206=
KMSP 060153Z 22012G20KT 9SM VCTS FEW020 FEW055CB BKN250
     26/21 A2983 RMK AO2 LTG DSNT NE RAB28E39 SLP097 VCTS S
     MOV E P0003 T02560211=
KMSP 060153Z 22012G20KT 9SM VCTS FEW020 FEW055CB BKN250
     26/21 A2983 RMK AO2 LTG DSNT NE RAB28E39 SLP097 VCTS S
     MOV E P0003 T02560211=
KRFD 060154Z 17006KT 10SM OVC070 24/17 A3002 RMK AO2
     RAB14E18 SLP162 P0000 T02390172 $=
KRFD 060154Z 17006KT 10SM OVC070 24/17 A3002 RMK AO2
     RAB14E18 SLP162 P0000 T02390172 $=
KORD 060151Z 18007KT 10SM BKN110 26/13 A3003 RMK AO2 SLP162
     T02560133=
KORD 060151Z 18007KT 10SM BKN110 26/13 A3003 RMK AO2 SLP162
     T02560133=